RH
14 14 15 16 17 18 18 18 17 18 18 18 18 17 18 18 16 38 30 48 57 44 48 40 37 15 20 38 53 95 48 100 53 43 42 35 68 99 100 97 100 100 100 100 98 79 100 100 100
18 18 17 17 19 18 18 17 18 17 18 17 17 18 17 18 25 22 26 67 94 100 79 100 99 62 25 57 46 74 60 77 100 99 52 38 46 77 100 100 100 100 100 100 100 94 100 100 100
24 23 20 20 20 20 20 19 21 20 22 23 21 20 20 19 19 26 43 92 99 98 89 100 100 100 89 44 53 100 84 56 100 100 100 73 69 46 65 97 100 100 100 100 100 100 100 97 100
30 31 23 20 18 16 19 21 18 20 22 20 20 21 24 22 22 23 31 60 76 85 94 100 100 97 100 85 47 60 100 65 71 100 100 100 75 90 93 92 99 100 99 100 100 100 100 100 100
47 40 34 34 25 22 18 19 19 20 21 21 21 22 22 24 23 24 22 30 57 85 82 98 89 100 100 93 86 65 88 100 93 100 100 100 100 100 100 100 97 98 84 97 100 100 100 100 100
45 43 42 39 40 32 24 21 19 17 17 19 21 20 22 20 23 25 24 23 22 33 81 98 96 90 100 100 76 89 100 100 100 100 100 100 100 100 93 67 100 100 97 87 100 100 96 100 100
51 50 36 41 47 34 29 29 24 22 19 17 18 22 18 20 19 20 21 19 19 21 22 31 49 48 98 100 82 93 94 99 100 100 100 100 100 100 100 100 73 85 100 84 100 100 100 100 100
61 64 48 39 31 57 29 44 35 34 29 20 19 20 19 19 19 20 20 20 18 18 19 19 18 17 18 42 83 68 99 96 90 100 100 100 100 100 100 100 100 100 62 96 98 100 100 100 100
74 70 71 56 44 38 29 33 35 40 41 39 25 24 24 22 21 21 21 21 21 20 17 15 14 14 15 14 15 23 26 79 100 100 100 98 100 100 100 100 80 100 100 98 80 86 90 91 98
82 68 73 69 71 57 39 37 36 48 40 45 39 37 29 30 33 28 23 22 21 22 21 19 17 17 17 17 16 15 14 15 15 34 85 100 99 97 100 100 100 100 100 100 100 100 70 80 93
90 78 75 77 72 58 60 50 46 50 55 49 48 52 51 36 37 44 41 33 27 25 25 24 22 21 23 22 23 25 23 21 20 17 16 23 54 60 68 100 100 100 100 100 100 100 100 100 88
63 55 52 62 66 62 56 53 55 47 52 43 50 50 47 50 51 46 45 44 46 53 43 34 28 27 29 30 30 30 31 33 32 29 28 24 21 18 25 40 75 76 71 97 100 99 99 100 100
56 64 61 66 66 67 72 67 60 59 52 59 68 62 54 45 44 58 63 67 87 99 89 74 57 46 40 38 39 40 42 38 38 40 40 38 42 40 35 30 31 42 42 47 53 65 89 92 100
71 75 76 80 62 56 64 68 76 62 73 66 78 74 71 69 61 57 79 100 100 100 100 96 86 86 79 69 64 59 59 55 55 49 51 57 59 59 62 62 56 43 39 34 29 41 43 43 70
63 95 94 100 92 84 87 94 98 84 80 77 73 73 99 98 95 93 93 80 98 100 100 100 100 96 87 89 76 70 72 71 74 74 79 70 63 59 78 81 70 67 69 60 54 44 38 36 43
68 74 76 95 86 82 71 71 69 100 100 100 100 100 100 100 100 100 89 78 92 89 94 95 96 99 97 97 96 92 85 74 83 89 82 89 76 60 49 44 47 70 73 75 74 69 64 51 40
94 92 86 72 86 99 82 62 54 61 89 91 99 100 100 100 100 100 100 100 97 92 94 100 100 100 100 88 79 71 68 68 66 61 62 64 57 44 35 34 32 29 32 39 38 41 45 74 60
93 78 90 89 67 96 94 70 64 85 59 64 69 64 69 73 90 100 100 100 100 100 100 100 100 100 100 96 84 76 80 82 81 80 59 56 35 37 38 37 37 33 27 23 26 25 26 33 52
99 97 80 98 95 96 100 97 100 100 100 100 100 100 82 83 83 99 100 99 96 95 100 100 100 100 100 100 81 73 76 71 48 37 34 40 35 34 36 38 41 38 39 30 21 18 18 18 22
100 99 100 100 100 100 96 81 99 100 100 100 100 100 100 93 91 88 88 79 85 88 82 76 73 66 57 54 54 49 35 31 37 36 31 32 32 37 38 38 39 38 37 32 30 24 20 17 18
97 100 100 100 100 97 97 75 77 100 100 100 100 100 100 100 99 99 95 73 62 61 65 60 62 58 62 38 33 35 40 40 41 38 37 37 36 37 37 36 37 37 38 31 28 31 30 24 21
59 84 100 100 93 81 74 52 52 62 99 100 100 100 100 100 99 93 83 60 45 43 44 41 39 38 38 35 36 37 39 45 48 50 52 53 54 54 47 38 40 45 46 36 24 28 27 24 24
48 47 55 53 51 48 53 51 53 54 59 74 99 100 100 99 72 51 50 50 50 51 51 46 44 38 40 43 61 66 70 80 73 71 64 73 66 52 45 46 49 53 45 35 24 19 18 16 15
49 62 69 59 46 35 41 40 41 49 49 59 57 63 62 54 54 57 57 59 54 57 58 51 59 77 84 85 96 100 100 95 91 85 74 76 59 52 45 52 60 57 43 28 18 16 14 13 13
82 82 79 71 70 55 52 47 51 49 62 76 77 73 76 87 80 78 72 68 83 97 96 88 85 97 100 100 100 100 95 88 96 90 86 76 57 48 59 64 61 46 25 19 17 16 17 17 17
80 100 100 95 78 63 58 52 54 64 80 91 99 90 82 81 77 72 69 63 67 70 71 75 84 87 93 94 92 82 87 98 92 80 80 68 54 56 66 65 56 29 19 17 18 17 14 11 9
100 100 100 100 100 79 78 80 68 76 74 78 96 100 100 100 100 95 72 81 100 100 100 90 83 82 81 90 94 96 99 96 97 86 73 58 55 68 68 64 33 21 19 19 12 10 9 8 8
100 100 100 100 100 97 98 73 86 100 100 100 100 94 93 99 100 100 100 100 100 100 100 100 100 100 100 99 100 100 100 95 82 64 50 55 69 70 73 38 25 22 18 10 11 10 9 6 5
100 100 96 100 100 100 100 99 100 100 100 100 100 100 100 100 100 96 100 100 100 94 84 90 100 100 100 100 99 96 84 72 66 59 58 69 72 72 46 28 25 18 12 13 11 6 4 4 4
100 100 100 100 100 100 100 100 100 100 100 100 100 100 94 90 96 100 100 100 98 99 100 100 100 89 90 82 76 72 70 67 62 59 66 72 69 49 29 27 19 15 15 11 5 4 5 5 5
Wind_Speed
16 14 14 13 11 11 9 11 13 14 14 13 12 13 16 21 30 40 45 45 49 51 47 44 51 58 62 66 65 67 59 58 55 59 60 61 61 60 53 56 51 50 42 44 47 41 38 36 37
13 13 10 10 12 8 8 8 11 13 15 16 17 17 16 14 18 23 26 32 39 40 39 34 35 42 57 60 61 61 58 55 38 48 56 61 61 64 62 59 55 55 54 50 51 49 47 39 44
14 13 13 13 10 10 9 10 10 13 13 14 14 17 16 16 15 15 14 21 31 32 33 36 35 32 48 52 61 57 55 59 50 41 39 53 57 66 69 66 62 58 56 50 54 53 49 46 48
16 17 15 14 14 14 11 12 13 14 14 15 16 16 17 15 15 12 7 11 17 25 27 34 38 43 37 44 59 59 57 56 61 54 56 51 58 60 63 69 66 64 60 58 58 60 55 49 51
19 20 20 19 18 18 17 16 15 13 12 13 15 16 17 17 11 9 9 8 14 20 23 35 36 40 42 45 48 57 59 57 61 57 59 59 58 47 59 62 68 68 66 63 63 61 61 55 52
21 21 22 24 23 21 20 20 19 16 14 14 13 14 14 15 13 8 8 8 10 15 24 35 38 42 43 46 50 56 65 66 66 70 64 66 66 63 62 65 67 66 70 69 68 67 66 60 58
25 25 23 25 24 26 24 23 21 21 21 17 17 17 13 12 13 10 9 8 7 8 13 21 32 35 46 50 46 56 65 72 74 72 71 67 69 70 65 52 69 77 70 75 70 70 68 66 66
28 30 31 28 27 26 28 26 23 24 25 22 22 23 19 16 17 16 13 15 13 14 14 15 15 17 26 42 51 54 65 69 77 76 79 76 77 75 77 75 65 63 77 80 77 77 74 72 70
29 31 33 35 33 29 31 29 28 27 30 27 27 27 29 25 22 22 23 22 20 19 20 19 20 21 19 20 24 34 43 64 80 82 81 83 80 84 82 80 82 77 70 74 83 83 82 81 78
32 33 35 36 37 34 35 33 34 31 33 33 31 33 33 33 32 30 29 30 30 29 27 28 27 27 27 29 29 29 31 33 38 66 88 86 86 92 92 91 89 83 87 87 81 77 89 91 89
34 35 37 39 39 39 40 36 39 36 38 37 37 37 38 41 40 38 37 38 37 39 38 39 38 37 37 39 40 41 41 43 43 42 43 52 60 68 77 96 97 97 95 92 91 88 88 82 90
34 36 37 40 39 39 40 40 41 40 42 41 42 43 44 44 45 48 48 47 46 46 46 47 48 47 47 46 48 49 51 52 54 55 57 58 60 60 60 60 75 87 85 100 103 102 98 97 92
37 39 37 40 42 41 43 43 44 46 49 46 49 48 48 50 50 51 51 52 52 52 54 53 54 55 56 57 57 58 61 62 63 63 65 68 71 72 72 72 71 72 74 75 83 90 107 109 107
48 48 50 50 47 44 45 46 51 51 53 51 54 54 54 53 55 55 55 56 57 58 59 60 60 61 62 64 65 67 68 68 70 72 73 75 77 78 81 83 83 83 83 86 82 82 84 92 102
45 50 53 54 52 50 48 48 54 53 59 56 58 59 59 59 59 60 62 62 63 65 65 66 67 68 69 70 71 73 74 75 77 78 79 80 84 86 87 89 90 93 96 95 95 94 92 90 90
58 58 58 60 60 58 55 58 57 56 59 59 60 61 61 61 60 62 66 67 69 71 72 73 73 74 74 74 75 77 79 80 82 84 86 89 91 92 96 98 99 97 98 101 103 103 102 100 99
65 65 65 63 68 61 65 66 65 62 61 60 62 64 67 66 66 65 68 70 72 74 76 76 77 78 78 80 80 81 82 86 87 87 87 89 91 87 83 84 87 92 96 100 104 105 105 108 107
70 73 74 76 69 67 67 66 64 64 65 69 70 70 67 69 74 75 79 78 76 74 74 76 78 79 81 81 82 86 88 89 90 89 85 84 79 79 81 83 86 91 93 97 101 105 110 111 112
83 81 75 78 72 71 66 58 69 63 66 72 73 74 72 73 75 76 78 80 82 84 85 85 85 86 87 88 89 89 90 89 82 76 75 78 79 81 84 89 91 96 94 101 106 109 108 112 114
83 84 78 76 72 73 70 59 64 69 65 78 76 74 81 82 78 79 82 84 88 87 88 89 90 93 94 93 84 77 74 76 76 79 79 84 86 89 87 88 94 97 100 100 110 116 117 120 121
72 74 75 76 73 72 71 61 63 75 79 82 78 82 84 88 85 85 87 82 77 75 77 76 74 74 69 68 72 75 77 79 84 85 88 91 91 93 95 97 97 99 100 102 106 117 121 124 132
68 65 60 61 63 63 62 58 53 59 69 77 85 85 86 88 87 79 79 66 66 66 69 67 68 69 71 75 75 80 83 86 89 90 92 95 97 99 100 102 102 104 107 104 104 106 119 126 133
59 64 66 69 66 67 63 65 48 54 59 65 73 80 84 84 72 69 68 72 69 70 73 74 76 77 79 83 84 85 89 92 93 95 96 100 102 102 107 105 110 111 110 108 106 105 111 121 127
69 68 68 68 68 60 60 59 42 53 58 65 66 71 72 75 75 75 75 76 75 77 80 82 84 85 85 87 89 91 92 95 97 99 101 103 105 104 106 112 115 113 113 110 107 107 107 108 112
72 73 76 77 73 68 70 67 58 63 65 67 70 69 72 78 80 79 80 80 80 82 84 86 87 87 89 90 93 95 96 98 99 101 104 107 105 107 113 115 116 114 111 106 103 100 102 105 107
76 78 79 79 78 74 74 73 66 66 70 75 77 79 78 78 81 81 84 84 85 85 84 82 84 87 90 92 95 96 98 100 101 104 107 107 108 113 118 120 117 112 104 99 98 97 97 99 102
78 81 84 82 82 83 79 79 76 76 79 79 81 81 79 79 82 84 81 82 86 88 89 89 89 90 92 94 97 100 102 103 105 107 108 109 114 118 122 120 113 105 100 97 94 93 95 95 98
83 83 86 88 90 90 84 81 80 79 82 83 83 84 88 91 92 88 87 87 89 92 93 95 96 96 97 99 100 103 105 106 107 108 109 113 118 121 123 115 106 102 97 94 92 91 91 90 90
86 86 89 94 94 96 93 83 81 88 89 91 93 93 93 92 94 92 93 94 94 93 93 95 99 100 102 102 104 106 107 108 110 110 114 118 120 122 116 106 103 98 96 93 89 86 83 82 81
89 90 90 95 99 104 102 83 88 94 97 99 99 96 99 97 93 95 97 99 101 101 101 102 102 101 103 105 107 108 108 109 110 112 116 120 122 116 105 103 99 98 95 90 84 80 77 75 75
Wind_Direction
20 42 38 29 19 27 21 23 17 20 12 6 344 312 300 286 267 253 255 251 245 241 237 240 240 235 228 231 225 228 234 237 242 237 230 233 235 235 235 231 228 225 225 221 220 211 232 246 251
3 4 1 0 5 11 18 17 5 358 6 3 359 358 347 336 304 276 259 241 236 232 236 218 237 238 231 228 232 233 230 230 227 244 245 236 236 234 233 236 237 228 233 237 226 220 214 228 249
347 348 346 346 339 337 349 336 345 344 350 354 355 0 0 357 347 324 279 239 236 231 229 216 220 240 234 230 225 227 231 226 215 224 232 246 239 237 236 237 237 237 229 234 233 223 219 211 223
325 329 331 331 334 330 323 329 335 334 339 343 343 345 348 353 355 348 334 265 254 237 214 231 227 231 230 229 229 226 228 231 224 229 231 230 240 240 242 240 237 241 239 237 235 235 224 222 221
312 314 316 317 321 322 322 319 318 323 321 326 337 335 336 334 338 354 337 287 240 238 243 224 235 221 232 236 233 226 224 225 226 224 223 228 231 237 242 243 244 243 242 244 237 230 227 226 223
312 311 308 309 308 309 314 316 313 308 306 308 309 318 325 328 322 319 321 313 280 251 226 234 237 234 230 234 233 225 218 221 222 224 232 230 233 230 239 243 238 238 239 244 242 235 231 231 228
309 305 305 303 302 299 298 303 310 306 296 299 295 294 303 302 303 301 298 292 274 257 255 252 248 237 234 239 242 232 227 223 227 226 232 229 230 235 230 237 243 240 239 239 238 239 235 234 234
308 305 305 302 300 290 288 288 294 300 298 286 289 286 292 284 281 276 274 285 285 272 264 262 262 264 259 250 240 238 234 229 228 231 229 230 232 235 237 232 236 238 240 238 240 240 238 237 236
303 299 299 297 295 294 288 284 285 289 290 295 279 277 287 286 277 270 268 263 264 267 269 267 261 267 262 266 260 253 253 238 235 233 232 235 234 234 235 238 240 241 237 240 242 241 242 240 239
298 295 292 291 290 290 288 285 284 282 284 284 286 276 273 281 280 279 271 272 268 266 261 259 259 266 269 273 275 267 264 269 262 248 242 247 244 240 245 243 242 243 239 239 240 239 244 243 242
293 294 295 290 289 289 285 284 282 279 279 278 279 279 276 271 272 274 274 274 271 268 263 258 255 251 261 263 259 262 264 268 270 265 257 257 257 259 258 251 250 245 245 241 238 237 237 239 245
291 291 293 293 290 288 288 286 283 279 278 281 276 276 277 275 272 271 273 272 273 272 271 270 264 260 260 262 267 264 264 267 271 273 270 272 271 266 264 260 255 251 260 258 248 242 243 240 239
290 297 297 296 295 295 294 290 285 281 284 284 279 279 281 279 278 276 275 274 273 272 268 269 268 268 268 268 269 271 274 276 274 271 271 272 273 273 271 269 265 262 260 259 259 261 251 250 244
292 296 296 298 296 296 295 293 290 289 285 283 281 279 278 277 276 277 276 273 272 272 272 271 271 271 269 270 270 273 274 275 276 278 276 273 271 271 270 270 270 269 266 266 260 255 255 259 254
292 294 299 296 293 292 289 291 291 293 288 286 282 279 278 276 277 277 276 275 274 273 272 271 271 271 271 271 271 275 275 276 276 275 275 274 273 270 267 266 268 265 263 264 263 263 260 255 254
294 295 295 296 296 290 287 295 293 288 286 285 281 280 280 280 279 277 275 275 273 271 270 271 272 272 272 273 274 274 274 277 277 276 275 271 272 272 268 268 265 263 262 262 261 260 259 258 254
291 291 293 294 295 289 290 290 289 285 281 282 282 282 279 276 276 277 279 277 276 275 273 272 274 274 274 275 276 276 277 277 277 276 274 271 272 273 273 270 268 265 262 260 258 258 255 256 256
292 291 289 291 293 290 291 291 290 290 288 286 285 285 283 282 281 279 281 278 275 274 274 276 276 275 275 277 279 279 280 278 277 277 276 275 276 276 277 278 276 276 270 265 262 257 253 251 252
292 292 288 288 290 288 288 291 291 286 290 282 283 284 282 281 283 283 280 279 279 278 278 277 276 275 277 279 280 280 279 279 280 278 277 276 277 277 279 278 276 274 276 271 264 261 259 254 250
290 289 287 286 285 284 280 282 281 284 285 281 280 283 283 286 286 284 281 281 281 279 278 277 278 278 278 279 281 279 278 278 278 279 281 279 277 277 276 280 277 280 275 273 267 262 259 253 253
287 286 283 282 283 285 285 285 282 277 278 278 280 281 280 281 285 286 285 284 284 285 282 281 281 282 281 279 282 279 282 283 283 283 281 281 282 280 279 283 283 279 278 272 265 259 257 254 254
289 288 286 282 285 282 284 286 285 278 278 277 278 280 280 280 285 288 285 285 289 287 286 284 283 282 282 285 284 283 284 284 285 283 284 283 284 285 284 287 285 283 283 277 265 260 254 253 252
294 292 288 287 285 285 285 279 274 274 280 279 280 280 280 283 286 283 284 291 288 288 287 286 287 286 286 285 285 284 283 284 285 286 287 287 288 288 290 290 291 289 285 280 274 266 260 255 254
296 296 295 293 294 294 291 290 291 287 281 283 285 285 285 284 284 285 285 288 287 286 285 284 285 286 286 285 285 284 284 285 286 287 287 288 290 290 292 292 291 291 286 281 275 272 269 265 260
293 295 294 293 293 295 294 295 298 293 292 291 287 287 283 280 281 284 284 286 285 283 282 283 284 284 284 284 284 284 285 285 286 288 289 290 291 293 294 295 294 290 286 282 278 275 272 268 265
291 289 289 290 291 291 294 298 297 293 289 287 287 285 286 287 286 287 286 286 285 284 283 283 284 283 283 283 284 285 286 287 288 288 290 292 293 294 298 298 295 291 286 283 281 278 273 269 264
288 289 287 285 285 288 293 295 297 295 292 291 286 282 281 282 283 286 286 286 285 283 283 285 283 282 283 283 284 285 286 287 288 290 291 292 294 298 299 297 293 291 290 287 283 279 274 269 265
285 286 283 281 283 286 289 292 295 290 286 284 285 286 287 286 285 283 282 281 281 281 282 282 281 281 282 283 284 285 286 288 289 291 293 295 298 299 300 296 294 293 291 289 286 281 276 271 266
281 284 284 280 281 284 287 291 290 285 282 284 287 287 288 288 283 280 279 279 278 280 281 281 281 283 284 285 285 285 287 290 291 293 296 299 300 300 298 296 296 295 294 291 287 282 277 273 268
279 280 282 281 278 282 285 288 283 280 282 283 286 287 288 289 281 278 280 279 279 281 282 281 281 282 284 285 287 288 290 290 293 296 299 301 302 300 298 298 298 297 295 292 288 284 280 275 270